www.pogodaiklimat.ru

Погода и климат >> Архив погоды >> Россия >> город Севастополь >> Севастополь


АРХИВ ПОГОДЫ в Севастополе

Время (UTC), дата Ветер
(напр.,м/с)
 
Видим.   Явления Облачность Т
(С)
Тd
(С)
f
(%)
Тe
(С)
Тes
(С)
Комфортность P
(гПа)
Po
(гПа)
Тmin
(С)
Tmax
(С)
R
(мм)
R24
(мм)
S
(см)
06 17.08 СВ 5 20 км 7 баллов +27.1 +19.2 62 +33 +34 очень
душно
1011.4 1010.7 +20.1
09 17.08 СВ 8 20 км 7 баллов +30.4 +18.8 50 +36 +36 очень
душно
1010.0 1009.3
12 17.08 СВ 6 20 км 7 баллов +31.8 +16.1 39 +35 +36 очень
душно
1010.0 1009.3
15 17.08 СВ 9 20 км 9 баллов +30.2 +18.9 51 +36 +36 очень
душно
1010.0 1009.3
18 17.08 СВ 5 20 км 7 баллов +27.7 +17.5 54 +32 +32 очень
душно
1011.4 1010.7 +32.1
21 17.08 СВ 5 10 км гроза, ливневой дождь 10 баллов +24.1 +20.0 78 +30 +30 очень
душно
1011.4 1010.7
00 18.08 В 2 20 км зарница 7 баллов +23.0 +19.2 79 +29 +29 очень
душно
1011.4 1010.7
03 18.08 СВ 4 20 км 7 баллов +23.1 +18.4 75 +29 +29 очень
душно
1011.4 1010.7 +22.6 0.4
06 18.08 В 4 10 км гроза, ливневой дождь 9 баллов +21.4 +18.8 85 +26 +26 душно 1012.7 1012.0 +20.7 14
09 18.08 Ю 1 10 км слабый ливневой дождь 9 баллов +20.2 +17.6 85 +24 +26 комфорт 1014.0 1013.3
12 18.08 СВ 6 20 км 9 баллов +26.2 +22.5 80 +34 +35 очень
душно
1014.0 1013.3
15 18.08 СВ 8 20 км 10 баллов +27.4 +21.2 69 +35 +35 очень
душно
1012.7 1012.0 15
18 18.08 В 1 20 км зарница 7 баллов +22.5 +19.7 84 +29 +29 очень
душно
1014.0 1013.3 +27.7 1
21 18.08 В 2 20 км 6 баллов +20.4 +17.6 84 +24 +24 комфорт 1014.0 1013.3
00 19.08 ЮВ 1 10 км гроза, ливневой дождь 10 баллов +21.2 +17.2 78 +25 +25 комфорт 1014.0 1013.3
03 19.08 В 1 20 км 6 баллов +20.1 +16.9 82 +24 +24 комфорт 1014.0 1013.3 +20.0 0.4
06 19.08 З 1 20 км 2 балла +24.3 +18.2 69 +29 +35 душно 1014.0 1013.3 +20.0 0.3
09 19.08 Ю 2 20 км 2 балла +27.9 +20.6 65 +28 +40 жарко 1014.0 1013.3
12 19.08 ЮЗ 6 20 км 4 балла +28.6 +22.3 69 +37 +40 очень
душно
1014.0 1013.3
15 19.08 Ю 5 20 км 6 баллов +28.0 +21.8 69 +36 +36 очень
душно
1014.0 1013.3
18 19.08 Ю 1 20 км ясно +25.0 +20.7 77 +31 +31 очень
душно
1015.4 1014.7 +30.2
21 19.08 В 1 20 км ясно +21.6 +18.8 84 +26 +26 душно 1015.4 1014.7
00 20.08 В 2 20 км ясно +20.2 +17.4 84 +24 +24 комфорт 1015.4 1014.7
03 20.08 В 2 20 км 2 балла +20.0 +17.4 85 +23 +23 комфорт 1014.0 1013.3 +20.0
06 20.08 В 2 20 км 6 баллов +23.1 +20.0 83 +30 +32 очень
душно
1014.0 1013.3 +20.0
09 20.08 З 4 20 км 2 балла +27.0 +23.0 79 +36 +44 очень
душно
1014.0 1013.3
12 20.08 Ю 6 20 км 2 балла +30.3 +18.0 48 +35 +38 очень
душно
1012.7 1012.0
15 20.08 Ю 5 20 км 2 балла +29.3 +19.0 54 +35 +35 очень
душно
1012.7 1012.0
18 20.08 штиль 0 20 км ясно +26.1 +20.6 72 +33 +33 очень
душно
1011.4 1010.7 +31.4
21 20.08 СВ 3 20 км ясно +22.2 +18.8 81 +28 +28 душно 1011.4 1010.7
00 21.08 В 2 20 км ясно +20.8 +17.8 83 +25 +25 комфорт 1011.4 1010.7
03 21.08 В 3 20 км 1 балл +20.2 +17.6 85 +24 +24 комфорт 1010.0 1009.3 +20.1
06 21.08 В 4 20 км ясно +24.5 +19.8 75 +30 +34 очень
душно
1010.0 1009.3 +20.1
09 21.08 З 4 20 км 1 балл +26.9 +21.6 73 +34 +44 очень
душно
1010.0 1009.3
12 21.08 З 6 20 км 2 балла +26.7 +23.4 82 +36 +40 очень
душно
1008.7 1008.0
15 21.08 ЮЗ 2 20 км 9 баллов +27.1 +22.1 74 +35 +35 очень
душно
1007.4 1006.7
18 21.08 В 2 20 км в посл. час ливневой дождь 10 баллов +22.5 +19.7 84 +29 +29 очень
душно
1008.7 1008.0 +27.4 3
21 21.08 Ю 1 20 км 7 баллов +22.5 +19.7 84 +29 +29 очень
душно
1007.4 1006.7
00 22.08 В 1 20 км 7 баллов +22.0 +19.4 85 +27 +27 душно 1006.0 1005.3
03 22.08 Ю 2 20 км 7 баллов +22.7 +20.2 86 +29 +29 очень
душно
1006.0 1005.3 +22.0 3
06 22.08 Ю 3 20 км в посл. час ливневой дождь 9 баллов +24.7 +20.4 77 +31 +31 очень
душно
1004.7 1004.0 +22.0 0.0
09 22.08 С 3 20 км в посл. час ливневой дождь 10 баллов +22.8 +19.9 84 +29 +29 очень
душно
1006.0 1005.3
12 22.08 СЗ 6 20 км 9 баллов +24.4 +20.5 79 +30 +31 очень
душно
1008.7 1008.0
15 22.08 СЗ 8 20 км 9 баллов +23.6 +20.7 84 +29 +29 душно 1010.0 1009.3 9
18 22.08 СЗ 7 20 км 9 баллов +22.9 +19.7 82 +29 +29 очень
душно
1010.0 1009.3 +24.7 9
21 22.08 С 7 20 км слабый ливневой дождь 10 баллов +22.0 +19.0 83 +27 +27 душно 1011.4 1010.7
00 23.08 С 8 20 км 10 баллов +21.9 +17.5 76 +26 +26 душно 1011.4 1010.7
03 23.08 С 7 20 км 7 баллов +21.1 +15.8 72 +24 +24 комфорт 1012.7 1012.0 +20.3 2
06 23.08 СВ 5 20 км 9 баллов +20.9 +16.7 77 +25 +25 комфорт 1014.0 1013.3 +20.3 2
09 23.08 СЗ 5 20 км 7 баллов +22.5 +14.6 61 +26 +28 жарко 1015.4 1014.7
12 23.08 СЗ 6 20 км 2 балла +22.5 +15.3 64 +26 +30 жарко 1016.7 1016.0
15 23.08 З 5 20 км 1 балл +22.7 +13.5 56 +26 +27 жарко 1016.7 1016.0
18 23.08 Ю 2 20 км 1 балл +20.9 +13.3 62 +24 +24 комфорт 1018.0 1017.3 +22.8
21 23.08 В 1 20 км 2 балла +17.3 +14.2 82 +18 +18 холодно 1018.0 1017.3
00 24.08 СВ 4 20 км в посл. час ливневой дождь 7 баллов +18.1 +15.4 84 +18 +18 прохладно 1018.0 1017.3
03 24.08 В 2 20 км 7 баллов +17.5 +14.9 85 +18 +18 холодно 1018.0 1017.3 +17.3 0.3

 

Местоположение метеостанции Севастополь (город Севастополь, Россия): широта 44.62 долгота 33.53 высота над уровнем моря 6 м.

В архиве по умолчанию представлена погода в Севастополе за последнюю неделю. Архивные данные за месяц целиком и за предыдущие месяцы, начиная с января 2011 года, Вы можете получить, выбрав интересующий диапазон дат из раскрывающегося списка и нажав кнопку "Ввод!".

Внимание! Время в таблицах - всемирное. Для получения местного времени необходимо прибавить поправку, которая в Севастополе равна 3 ч.

Смотрите также архив погоды в соседних городах и на ближайших метеорологических станциях:

Погода в Херсонесском Маяке (город Севастополь, Россия) (13 км)
Погода в Ай-Петри (Крым, Россия) (47 км)
Погода в Ялте (Крым, Россия) (53 км)
Погода в Симферополе (Крым, Россия) (57 км)
Погода в Никитском саду (Крым, Россия) (58 км)
Погода в Евпатории (Крым, Россия) (64 км)
Погода в Алуште (Крым, Россия) (69 км)
Погода в Белогорске (Крым, Россия) (97 км)
Погода в Клепинино (Крым, Россия) (113 км)
Погода в Черноморском (Крым, Россия) (119 км)

Пояснения к столбцам:

Ветер - указаны скорость ветра в м/с - средняя за 10 мин, порывы в срок и между сроками (в фигурных скобках) и направление, откуда дует ветер: С - северный, СВ - северо-восточный, В - восточный, ЮВ - юго-восточный, Ю - южный, ЮЗ - юго-западный, З - западный, СЗ - северо-западный.
Видимость - горизонтальная дальность видимости в метрах или километрах. При видимости от 1 до 10 км при отсутствии осадков обычно наблюдается дымка, при ухудшении видимости до 1 км и менее - туман. В сухую погоду видимость может ухудшаться дымом, пылью или мглою.
Явления - указаны атмосферные явления, наблюдавшиеся в срок или в последний час перед сроком; фигурными скобками обозначены явления, наблюдавшиеся между сроками (за 1-3 часа до срока); квадратными скобками обозначены град или гололедные отложения с указанием их диаметра в мм.
Облачность - указаны через наклонную черту общая и нижняя облачность в баллах и высота нижней границы облаков в метрах; квадратными скобками обозначены формы облаков: Ci - перистые, Cs - перисто-слоистые, Cc - перисто-кучевые, Ac - высококучевые, As - высокослоистые, Sc - слоисто-кучевые, Ns - слоисто-дождевые, Cu - кучевые, Cb - кучево-дождевые. Подробнее классификацию облаков см. в Атласе облаков (PDF).
T - Температура воздуха - температура, измеренная на высоте 2 м над землей.
Td - Температура точки росы - температура, при понижении до которой содержащийся в воздухе водяной пар достигнет насыщения.
f - Относительная влажность воздуха - влажноcть воздуха, измеренная на высоте 2 м над землей.
Te - Эффективная температура - температура, которую ощущает одетый по сезону человек в тени. Характеристика душности погоды. При расчете учитывается влияние влажности воздуха и скорости ветра на теплоощущения человека.
Tes - Эффективная температура на солнце - температура, которую ощущает человек, с поправкой на солнечный нагрев. Характеристика знойности погоды. Зависит от высоты солнца над горизонтом, облачности и скорости ветра. Ночью, в пасмурную погоду, а также при ветре 12 м/с и более поправка равна нулю.
P - Атмосферное давление - приведенное к уровню моря атмосферное давление.
Po - Атмосферное давление - измеренное на уровне метеостанции атмосферное давление.
Tmin - Минимальная температура - минимум температуры воздуха на высоте 2 м над землей.
Tmax - Максимальная температура - максимум температуры воздуха на высоте 2 м над землей.
R - Количество осадков - Количество выпавших осадков за период времени, мм. При наведении курсора мыши на число - период времени, за который выпало указанное количество осадков.
R24 - Количество осадков - Количество выпавших осадков за 24 часа, мм.
S - Снежный покров - Высота снежного покрова, см. При наведении курсора мыши на число - состояние снежного покрова и степень покрытия местности в баллах.